Time,TemperatureF,DewpointF,PressureIn,WindDirection,WindDirectionDegrees,WindSpeedMPH,WindSpeedGustMPH,Humidity,HourlyPrecipIn,Conditions,Clouds,dailyrainin,SoftwareType,DateUTC
2013-11-18 00:05:00,71.4,70.5,29.79,SE,128,1.0,2.0,97,0.00,,,0.00,Wunderground v.1.15,2013-11-18 06:05:00,
2013-11-18 00:10:00,71.3,70.4,29.80,SSW,202,1.0,3.0,97,0.00,,,0.00,Wunderground v.1.15,2013-11-18 06:10:00,
2013-11-18 00:17:00,71.3,70.4,29.80,SSE,155,1.0,2.0,97,0.00,,,0.00,Wunderground v.1.15,2013-11-18 06:17:00,
2013-11-18 00:22:00,71.4,70.5,29.80,SSW,200,1.0,2.0,97,0.00,,,0.00,Wunderground v.1.15,2013-11-18 06:22:00,
2013-11-18 00:28:00,71.4,70.5,29.80,SE,139,1.0,2.0,97,0.00,,,0.00,Wunderground v.1.15,2013-11-18 06:28:00,
2013-11-18 00:34:00,71.5,70.6,29.80,South,191,2.0,3.0,97,0.00,,,0.00,Wunderground v.1.15,2013-11-18 06:34:00,
2013-11-18 00:40:00,71.5,70.6,29.80,SSW,194,1.0,2.0,97,0.00,,,0.00,Wunderground v.1.15,2013-11-18 06:40:00,
2013-11-18 00:45:00,71.6,70.7,29.80,South,186,1.0,3.0,97,0.00,,,0.00,Wunderground v.1.15,2013-11-18 06:45:00,
2013-11-18 00:51:00,71.6,70.7,29.80,SSE,158,1.0,2.0,97,0.00,,,0.00,Wunderground v.1.15,2013-11-18 06:51:00,
2013-11-18 00:56:00,71.7,70.8,29.80,South,183,1.0,2.0,97,0.00,,,0.00,Wunderground v.1.15,2013-11-18 06:56:00,
2013-11-18 01:01:00,71.8,70.9,29.80,South,191,2.0,2.0,97,0.00,,,0.00,Wunderground v.1.15,2013-11-18 07:01:00,
2013-11-18 01:07:00,71.9,71.0,29.80,SW,225,2.0,3.0,97,0.00,,,0.00,Wunderground v.1.15,2013-11-18 07:07:00,
2013-11-18 01:13:00,72.0,71.1,29.80,South,191,2.0,4.0,97,0.00,,,0.00,Wunderground v.1.15,2013-11-18 07:13:00,
2013-11-18 01:19:00,72.1,71.2,29.80,SSW,195,2.0,4.0,97,0.00,,,0.00,Wunderground v.1.15,2013-11-18 07:19:00,
2013-11-18 01:24:00,72.1,71.2,29.80,SSE,153,2.0,4.0,97,0.00,,,0.00,Wunderground v.1.15,2013-11-18 07:24:00,
2013-11-18 01:30:00,72.0,71.1,29.80,SE,131,2.0,5.0,97,0.00,,,0.00,Wunderground v.1.15,2013-11-18 07:30:00,
2013-11-18 01:36:00,72.0,71.1,29.80,SE,136,2.0,2.0,97,0.00,,,0.00,Wunderground v.1.15,2013-11-18 07:36:00,
2013-11-18 01:42:00,72.0,71.1,29.80,South,187,2.0,4.0,97,0.00,,,0.00,Wunderground v.1.15,2013-11-18 07:42:00,
2013-11-18 01:48:00,72.0,71.1,29.80,SSW,203,2.0,4.0,97,0.00,,,0.00,Wunderground v.1.15,2013-11-18 07:48:00,
2013-11-18 01:53:00,71.9,71.0,29.80,SW,219,1.0,4.0,97,0.00,,,0.00,Wunderground v.1.15,2013-11-18 07:53:00,
2013-11-18 01:59:00,71.9,71.0,29.80,SSE,150,1.0,1.0,97,0.00,,,0.00,Wunderground v.1.15,2013-11-18 07:59:00,
2013-11-18 02:05:00,71.9,71.0,29.80,South,187,1.0,2.0,97,0.00,,,0.00,Wunderground v.1.15,2013-11-18 08:05:00,
2013-11-18 02:11:00,71.9,71.0,29.80,SSE,160,1.0,2.0,97,0.00,,,0.00,Wunderground v.1.15,2013-11-18 08:11:00,
2013-11-18 02:17:00,71.9,71.0,29.81,South,186,1.0,1.0,97,0.00,,,0.00,Wunderground v.1.15,2013-11-18 08:17:00,
2013-11-18 02:23:00,71.9,71.0,29.80,SSW,211,1.0,3.0,97,0.00,,,0.00,Wunderground v.1.15,2013-11-18 08:23:00,
2013-11-18 02:28:00,71.9,71.0,29.80,South,188,1.0,4.0,97,0.00,,,0.00,Wunderground v.1.15,2013-11-18 08:28:00,
2013-11-18 02:34:00,71.9,71.0,29.80,SE,127,2.0,4.0,97,0.00,,,0.00,Wunderground v.1.15,2013-11-18 08:34:00,
2013-11-18 02:40:00,71.9,71.0,29.80,SSW,209,1.0,3.0,97,0.00,,,0.00,Wunderground v.1.15,2013-11-18 08:40:00,
2013-11-18 02:45:00,71.9,71.0,29.80,ESE,103,1.0,2.0,97,0.00,,,0.00,Wunderground v.1.15,2013-11-18 08:45:00,
2013-11-18 02:52:00,71.8,70.9,29.81,SSW,194,1.0,2.0,97,0.00,,,0.00,Wunderground v.1.15,2013-11-18 08:52:00,
2013-11-18 02:58:00,71.8,70.9,29.81,SSW,198,1.0,3.0,97,0.00,,,0.00,Wunderground v.1.15,2013-11-18 08:58:00,
2013-11-18 03:03:00,71.7,70.8,29.81,SSW,205,1.0,3.0,97,0.00,,,0.00,Wunderground v.1.15,2013-11-18 09:03:00,
2013-11-18 03:08:00,71.7,70.8,29.81,ESE,103,1.0,1.0,97,0.00,,,0.00,Wunderground v.1.15,2013-11-18 09:08:00,
2013-11-18 03:14:00,71.6,70.7,29.81,SW,222,1.0,1.0,97,0.00,,,0.00,Wunderground v.1.15,2013-11-18 09:14:00,
2013-11-18 03:19:00,71.6,70.7,29.80,SE,141,1.0,3.0,97,0.00,,,0.00,Wunderground v.1.15,2013-11-18 09:19:00,
2013-11-18 03:25:00,71.5,70.9,29.80,SSW,204,1.0,1.0,98,0.00,,,0.00,Wunderground v.1.15,2013-11-18 09:25:00,
2013-11-18 03:32:00,71.5,70.9,29.80,SSW,212,1.0,2.0,98,0.00,,,0.00,Wunderground v.1.15,2013-11-18 09:32:00,
2013-11-18 03:37:00,71.4,70.8,29.80,SSW,202,1.0,2.0,98,0.00,,,0.00,Wunderground v.1.15,2013-11-18 09:37:00,
2013-11-18 03:42:00,71.4,70.8,29.80,SSE,164,1.0,2.0,98,0.00,,,0.00,Wunderground v.1.15,2013-11-18 09:42:00,
2013-11-18 03:48:00,71.4,70.8,29.80,SSW,211,1.0,1.0,98,0.00,,,0.00,Wunderground v.1.15,2013-11-18 09:48:00,
2013-11-18 03:54:00,71.4,70.8,29.80,SSW,200,0.0,1.0,98,0.00,,,0.00,Wunderground v.1.15,2013-11-18 09:54:00,
2013-11-18 04:00:00,71.3,70.7,29.80,SSE,162,0.0,0.0,98,0.00,,,0.00,Wunderground v.1.15,2013-11-18 10:00:00,
2013-11-18 04:06:00,71.2,70.6,29.80,South,169,0.0,0.0,98,0.00,,,0.00,Wunderground v.1.15,2013-11-18 10:06:00,
2013-11-18 04:11:00,71.2,70.6,29.81,SSE,149,0.0,2.0,98,0.00,,,0.00,Wunderground v.1.15,2013-11-18 10:11:00,
2013-11-18 04:17:00,71.1,70.5,29.81,SE,129,0.0,0.0,98,0.00,,,0.00,Wunderground v.1.15,2013-11-18 10:17:00,
2013-11-18 04:22:00,71.1,70.5,29.80,SE,127,0.0,0.0,98,0.00,,,0.00,Wunderground v.1.15,2013-11-18 10:22:00,
2013-11-18 04:27:00,71.0,70.4,29.81,SSE,149,0.0,0.0,98,0.00,,,0.00,Wunderground v.1.15,2013-11-18 10:27:00,
2013-11-18 04:33:00,70.9,70.3,29.81,South,186,0.0,0.0,98,0.00,,,0.00,Wunderground v.1.15,2013-11-18 10:33:00,
2013-11-18 04:39:00,70.9,70.3,29.80,South,174,0.0,0.0,98,0.00,,,0.00,Wunderground v.1.15,2013-11-18 10:39:00,
2013-11-18 04:44:00,70.9,70.3,29.81,South,173,0.0,0.0,98,0.00,,,0.00,Wunderground v.1.15,2013-11-18 10:44:00,
2013-11-18 04:50:00,70.9,70.3,29.81,SE,144,0.0,0.0,98,0.00,,,0.00,Wunderground v.1.15,2013-11-18 10:50:00,
2013-11-18 04:57:00,70.9,70.3,29.80,South,190,0.0,0.0,98,0.00,,,0.00,Wunderground v.1.15,2013-11-18 10:57:00,
2013-11-18 05:02:00,70.9,70.3,29.81,South,174,0.0,0.0,98,0.00,,,0.00,Wunderground v.1.15,2013-11-18 11:02:00,
2013-11-18 05:08:00,70.9,70.3,29.81,South,190,0.0,0.0,98,0.00,,,0.00,Wunderground v.1.15,2013-11-18 11:08:00,
2013-11-18 05:13:00,70.8,70.2,29.81,SSE,157,0.0,0.0,98,0.00,,,0.00,Wunderground v.1.15,2013-11-18 11:13:00,
2013-11-18 05:20:00,70.9,70.3,29.81,SE,142,0.0,0.0,98,0.00,,,0.00,Wunderground v.1.15,2013-11-18 11:20:00,
2013-11-18 05:25:00,70.9,70.3,29.82,SSW,198,0.0,1.0,98,0.00,,,0.00,Wunderground v.1.15,2013-11-18 11:25:00,
2013-11-18 05:30:00,70.9,70.3,29.82,SSW,198,0.0,0.0,98,0.00,,,0.00,Wunderground v.1.15,2013-11-18 11:30:00,
2013-11-18 05:36:00,70.9,70.3,29.82,SSE,162,0.0,0.0,98,0.00,,,0.00,Wunderground v.1.15,2013-11-18 11:36:00,
2013-11-18 05:41:00,70.9,70.3,29.82,SE,139,0.0,0.0,98,0.00,,,0.00,Wunderground v.1.15,2013-11-18 11:41:00,
2013-11-18 05:47:00,70.9,70.3,29.83,SE,140,0.0,0.0,98,0.00,,,0.00,Wunderground v.1.15,2013-11-18 11:47:00,
2013-11-18 05:53:00,71.0,70.4,29.83,SE,139,0.0,0.0,98,0.00,,,0.00,Wunderground v.1.15,2013-11-18 11:53:00,
2013-11-18 05:58:00,71.0,70.4,29.82,SE,139,0.0,0.0,98,0.00,,,0.00,Wunderground v.1.15,2013-11-18 11:58:00,
2013-11-18 06:04:00,71.0,70.4,29.83,ESE,119,0.0,0.0,98,0.00,,,0.00,Wunderground v.1.15,2013-11-18 12:04:00,
2013-11-18 06:10:00,71.1,70.5,29.83,ESE,108,0.0,0.0,98,0.00,,,0.00,Wunderground v.1.15,2013-11-18 12:10:00,
2013-11-18 06:15:00,71.1,70.5,29.83,East,96,0.0,0.0,98,0.00,,,0.01,Wunderground v.1.15,2013-11-18 12:15:00,
2013-11-18 06:21:00,71.1,70.5,29.83,ESE,102,0.0,0.0,98,0.00,,,0.01,Wunderground v.1.15,2013-11-18 12:21:00,
2013-11-18 06:27:00,71.0,70.4,29.84,East,93,0.0,0.0,98,0.00,,,0.01,Wunderground v.1.15,2013-11-18 12:27:00,
2013-11-18 06:33:00,71.0,70.4,29.84,East,94,0.0,0.0,98,0.00,,,0.01,Wunderground v.1.15,2013-11-18 12:33:00,
2013-11-18 06:38:00,71.0,70.4,29.84,East,93,0.0,0.0,98,0.00,,,0.01,Wunderground v.1.15,2013-11-18 12:38:00,
2013-11-18 06:44:00,71.0,70.4,29.84,East,94,0.0,0.0,98,0.00,,,0.01,Wunderground v.1.15,2013-11-18 12:44:00,
2013-11-18 06:49:00,71.0,70.4,29.84,East,94,0.0,0.0,98,0.00,,,0.01,Wunderground v.1.15,2013-11-18 12:49:00,
2013-11-18 06:55:00,71.0,70.4,29.84,East,93,0.0,0.0,98,0.00,,,0.01,Wunderground v.1.15,2013-11-18 12:55:00,
2013-11-18 07:01:00,71.0,70.4,29.84,East,93,0.0,0.0,98,0.00,,,0.01,Wunderground v.1.15,2013-11-18 13:01:00,
2013-11-18 07:06:00,71.1,70.5,29.84,East,93,0.0,0.0,98,0.00,,,0.01,Wunderground v.1.15,2013-11-18 13:06:00,
2013-11-18 07:12:00,71.1,70.5,29.85,East,93,0.0,0.0,98,0.00,,,0.01,Wunderground v.1.15,2013-11-18 13:12:00,
2013-11-18 07:18:00,71.2,70.6,29.85,East,93,0.0,0.0,98,0.00,,,0.01,Wunderground v.1.15,2013-11-18 13:18:00,
2013-11-18 07:23:00,71.2,70.6,29.85,East,94,0.0,0.0,98,0.00,,,0.01,Wunderground v.1.15,2013-11-18 13:23:00,
2013-11-18 07:29:00,71.3,70.7,29.85,East,94,0.0,0.0,98,0.00,,,0.01,Wunderground v.1.15,2013-11-18 13:29:00,
2013-11-18 07:34:00,71.4,70.8,29.85,East,94,0.0,0.0,98,0.00,,,0.01,Wunderground v.1.15,2013-11-18 13:34:00,
2013-11-18 07:40:00,71.6,71.0,29.85,East,93,0.0,0.0,98,0.00,,,0.01,Wunderground v.1.15,2013-11-18 13:40:00,
2013-11-18 07:45:00,71.7,71.1,29.86,East,94,0.0,0.0,98,0.00,,,0.01,Wunderground v.1.15,2013-11-18 13:45:00,
2013-11-18 07:51:00,71.9,71.3,29.85,East,93,0.0,0.0,98,0.00,,,0.01,Wunderground v.1.15,2013-11-18 13:51:00,
2013-11-18 07:56:00,72.1,71.5,29.86,East,94,0.0,0.0,98,0.00,,,0.01,Wunderground v.1.15,2013-11-18 13:56:00,
2013-11-18 08:01:00,72.2,71.6,29.86,East,93,0.0,0.0,98,0.00,,,0.01,Wunderground v.1.15,2013-11-18 14:01:00,
2013-11-18 08:07:00,72.4,71.8,29.86,East,94,0.0,0.0,98,0.00,,,0.01,Wunderground v.1.15,2013-11-18 14:07:00,
2013-11-18 08:12:00,72.4,71.8,29.86,East,94,0.0,0.0,98,0.00,,,0.01,Wunderground v.1.15,2013-11-18 14:12:00,
2013-11-18 08:18:00,72.5,71.9,29.86,WSW,251,0.0,0.0,98,0.00,,,0.01,Wunderground v.1.15,2013-11-18 14:18:00,
2013-11-18 08:23:00,72.6,72.0,29.86,WSW,251,0.0,0.0,98,0.00,,,0.01,Wunderground v.1.15,2013-11-18 14:23:00,
2013-11-18 08:29:00,72.7,72.1,29.87,WSW,251,0.0,0.0,98,0.00,,,0.01,Wunderground v.1.15,2013-11-18 14:29:00,
2013-11-18 08:34:00,72.8,72.2,29.87,WSW,252,0.0,0.0,98,0.00,,,0.01,Wunderground v.1.15,2013-11-18 14:34:00,
2013-11-18 08:40:00,72.9,72.3,29.87,West,262,0.0,0.0,98,0.00,,,0.01,Wunderground v.1.15,2013-11-18 14:40:00,
2013-11-18 08:46:00,73.1,72.5,29.88,West,262,0.0,0.0,98,0.00,,,0.01,Wunderground v.1.15,2013-11-18 14:46:00,
2013-11-18 08:51:00,73.5,72.9,29.88,West,262,0.0,0.0,98,0.00,,,0.01,Wunderground v.1.15,2013-11-18 14:51:00,
2013-11-18 08:57:00,73.7,73.1,29.88,West,262,0.0,0.0,98,0.00,,,0.01,Wunderground v.1.15,2013-11-18 14:57:00,
2013-11-18 09:02:00,73.7,73.1,29.88,West,262,0.0,0.0,98,0.00,,,0.01,Wunderground v.1.15,2013-11-18 15:02:00,
2013-11-18 09:07:00,73.8,73.2,29.88,West,266,0.0,0.0,98,0.00,,,0.01,Wunderground v.1.15,2013-11-18 15:07:00,
2013-11-18 09:13:00,73.6,73.0,29.89,NNW,328,0.0,0.0,98,0.00,,,0.01,Wunderground v.1.15,2013-11-18 15:13:00,
2013-11-18 09:19:00,73.7,73.1,29.89,NNW,328,0.0,0.0,98,0.00,,,0.01,Wunderground v.1.15,2013-11-18 15:19:00,
2013-11-18 09:25:00,73.9,73.3,29.89,NNW,328,0.0,0.0,98,0.00,,,0.01,Wunderground v.1.15,2013-11-18 15:25:00,
2013-11-18 09:30:00,73.9,73.0,29.89,NW,326,0.0,0.0,97,0.00,,,0.01,Wunderground v.1.15,2013-11-18 15:30:00,
2013-11-18 09:36:00,73.9,73.3,29.89,NW,326,0.0,0.0,98,0.00,,,0.01,Wunderground v.1.15,2013-11-18 15:36:00,
2013-11-18 09:41:00,73.9,73.0,29.89,NW,326,0.0,0.0,97,0.00,,,0.01,Wunderground v.1.15,2013-11-18 15:41:00,
2013-11-18 09:47:00,73.8,72.9,29.89,NNW,328,0.0,0.0,97,0.00,,,0.01,Wunderground v.1.15,2013-11-18 15:47:00,
2013-11-18 09:53:00,73.9,73.0,29.89,NNW,328,0.0,0.0,97,0.00,,,0.01,Wunderground v.1.15,2013-11-18 15:53:00,
2013-11-18 09:56:00,74.1,73.5,29.89,NW,321,0.0,0.0,98,0.00,,,0.01,Wunderground v.1.15,2013-11-18 15:56:00,
2013-11-18 10:02:00,74.3,73.4,29.89,NW,322,0.0,0.0,97,0.00,,,0.01,Wunderground v.1.15,2013-11-18 16:02:00,
2013-11-18 10:08:00,74.4,73.5,29.89,NW,315,0.0,0.0,97,0.00,,,0.01,Wunderground v.1.15,2013-11-18 16:08:00,
2013-11-18 10:14:00,74.5,73.6,29.89,NW,322,0.0,0.0,97,0.00,,,0.01,Wunderground v.1.15,2013-11-18 16:14:00,
2013-11-18 10:20:00,74.7,73.8,29.89,NW,321,0.0,0.0,97,0.00,,,0.01,Wunderground v.1.15,2013-11-18 16:20:00,
2013-11-18 10:25:00,74.8,73.9,29.89,NW,321,0.0,0.0,97,0.00,,,0.01,Wunderground v.1.15,2013-11-18 16:25:00,
2013-11-18 10:31:00,74.8,73.9,29.89,North,357,0.0,0.0,97,0.00,,,0.01,Wunderground v.1.15,2013-11-18 16:31:00,
2013-11-18 10:37:00,74.9,74.0,29.89,WNW,294,0.0,0.0,97,0.00,,,0.01,Wunderground v.1.15,2013-11-18 16:37:00,
2013-11-18 10:43:00,74.9,73.7,29.89,East,84,0.0,0.0,96,0.00,,,0.01,Wunderground v.1.15,2013-11-18 16:43:00,
2013-11-18 10:49:00,74.9,73.7,29.89,East,101,1.0,4.0,96,0.00,,,0.01,Wunderground v.1.15,2013-11-18 16:49:00,
2013-11-18 10:55:00,75.2,74.0,29.89,ENE,78,1.0,4.0,96,0.00,,,0.01,Wunderground v.1.15,2013-11-18 16:55:00,
2013-11-18 11:00:00,75.7,74.5,29.89,NE,36,0.0,0.0,96,0.00,,,0.01,Wunderground v.1.15,2013-11-18 17:00:00,
2013-11-18 11:06:00,75.9,74.7,29.89,NNE,18,0.0,0.0,96,0.00,,,0.01,Wunderground v.1.15,2013-11-18 17:06:00,
2013-11-18 11:12:00,75.9,74.4,29.89,WNW,302,0.0,1.0,95,0.00,,,0.01,Wunderground v.1.15,2013-11-18 17:12:00,
2013-11-18 11:17:00,75.7,73.8,29.89,NW,312,0.0,0.0,94,0.00,,,0.01,Wunderground v.1.15,2013-11-18 17:17:00,
2013-11-18 11:23:00,75.4,73.6,29.89,North,357,0.0,1.0,94,0.00,,,0.01,Wunderground v.1.15,2013-11-18 17:23:00,
2013-11-18 11:28:00,75.2,73.4,29.89,NNE,22,0.0,0.0,94,0.00,,,0.01,Wunderground v.1.15,2013-11-18 17:28:00,
2013-11-18 11:34:00,75.2,73.4,29.88,NNE,13,0.0,0.0,94,0.00,,,0.01,Wunderground v.1.15,2013-11-18 17:34:00,
2013-11-18 11:40:00,75.1,73.3,29.88,WNW,292,0.0,1.0,94,0.00,,,0.01,Wunderground v.1.15,2013-11-18 17:40:00,
2013-11-18 11:46:00,75.3,73.5,29.88,NE,50,0.0,0.0,94,0.00,,,0.01,Wunderground v.1.15,2013-11-18 17:46:00,
2013-11-18 11:51:00,75.5,73.3,29.88,NNW,335,0.0,1.0,93,0.00,,,0.01,Wunderground v.1.15,2013-11-18 17:51:00,
2013-11-18 11:56:00,76.0,73.8,29.88,NW,326,0.0,0.0,93,0.00,,,0.01,Wunderground v.1.15,2013-11-18 17:56:00,
2013-11-18 12:02:00,76.3,73.8,29.88,NNE,12,0.0,0.0,92,0.00,,,0.01,Wunderground v.1.15,2013-11-18 18:02:00,
2013-11-18 12:08:00,76.4,73.6,29.86,NNW,346,0.0,0.0,91,0.00,,,0.01,Wunderground v.1.15,2013-11-18 18:08:00,
2013-11-18 12:13:00,76.5,73.7,29.87,North,349,0.0,0.0,91,0.00,,,0.01,Wunderground v.1.15,2013-11-18 18:13:00,
2013-11-18 12:19:00,76.7,73.5,29.87,North,360,0.0,0.0,90,0.00,,,0.01,Wunderground v.1.15,2013-11-18 18:19:00,
2013-11-18 12:25:00,76.7,73.5,29.86,NW,305,0.0,0.0,90,0.00,,,0.01,Wunderground v.1.15,2013-11-18 18:25:00,
2013-11-18 12:30:00,76.8,73.6,29.86,NW,322,0.0,0.0,90,0.00,,,0.01,Wunderground v.1.15,2013-11-18 18:30:00,
2013-11-18 12:36:00,77.2,74.0,29.86,NW,322,0.0,0.0,90,0.00,,,0.01,Wunderground v.1.15,2013-11-18 18:36:00,
2013-11-18 12:42:00,77.4,73.6,29.86,NNW,345,0.0,1.0,88,0.00,,,0.01,Wunderground v.1.15,2013-11-18 18:42:00,
2013-11-18 12:47:00,77.3,73.5,29.86,WNW,297,0.0,1.0,88,0.00,,,0.01,Wunderground v.1.15,2013-11-18 18:47:00,
2013-11-18 12:53:00,77.6,73.8,29.86,NNW,337,0.0,1.0,88,0.00,,,0.01,Wunderground v.1.15,2013-11-18 18:53:00,
2013-11-18 12:58:00,77.5,73.3,29.85,NW,309,0.0,0.0,87,0.00,,,0.01,Wunderground v.1.15,2013-11-18 18:58:00,
2013-11-18 13:03:00,77.4,73.2,29.85,NNE,27,0.0,0.0,87,0.00,,,0.01,Wunderground v.1.15,2013-11-18 19:03:00,
2013-11-18 13:09:00,77.4,73.6,29.85,North,10,0.0,0.0,88,0.00,,,0.01,Wunderground v.1.15,2013-11-18 19:09:00,
2013-11-18 13:15:00,77.5,73.7,29.85,NNW,328,0.0,1.0,88,0.00,,,0.01,Wunderground v.1.15,2013-11-18 19:15:00,
2013-11-18 13:20:00,77.6,73.4,29.85,NNE,29,0.0,1.0,87,0.00,,,0.01,Wunderground v.1.15,2013-11-18 19:20:00,
2013-11-18 13:25:00,77.5,73.3,29.85,NNW,343,0.0,1.0,87,0.00,,,0.01,Wunderground v.1.15,2013-11-18 19:25:00,
2013-11-18 13:31:00,77.4,73.6,29.85,NNW,340,0.0,1.0,88,0.00,,,0.01,Wunderground v.1.15,2013-11-18 19:31:00,
2013-11-18 13:37:00,77.4,73.6,29.85,WNW,287,0.0,3.0,88,0.00,,,0.01,Wunderground v.1.15,2013-11-18 19:37:00,
2013-11-18 13:43:00,77.2,73.4,29.84,NE,40,0.0,3.0,88,0.00,,,0.01,Wunderground v.1.15,2013-11-18 19:43:00,
2013-11-18 13:48:00,77.2,73.4,29.84,NE,50,0.0,0.0,88,0.00,,,0.01,Wunderground v.1.15,2013-11-18 19:48:00,
2013-11-18 13:54:00,77.1,73.3,29.84,East,87,0.0,0.0,88,0.00,,,0.01,Wunderground v.1.15,2013-11-18 19:54:00,
2013-11-18 14:00:00,77.2,73.4,29.84,ENE,72,0.0,1.0,88,0.00,,,0.01,Wunderground v.1.15,2013-11-18 20:00:00,
2013-11-18 14:06:00,76.6,72.4,29.84,ENE,65,1.0,1.0,87,0.00,,,0.01,Wunderground v.1.15,2013-11-18 20:06:00,
2013-11-18 14:12:00,76.4,72.9,29.84,ENE,72,1.0,2.0,89,0.00,,,0.01,Wunderground v.1.15,2013-11-18 20:12:00,
2013-11-18 14:18:00,76.5,73.0,29.83,ENE,60,1.0,4.0,89,0.00,,,0.01,Wunderground v.1.15,2013-11-18 20:18:00,
2013-11-18 14:23:00,77.2,73.7,29.84,ENE,76,1.0,4.0,89,0.00,,,0.01,Wunderground v.1.15,2013-11-18 20:23:00,
2013-11-18 14:29:00,77.0,72.8,29.84,NNE,33,1.0,2.0,87,0.00,,,0.01,Wunderground v.1.15,2013-11-18 20:29:00,
2013-11-18 14:35:00,76.9,73.1,29.84,ENE,67,0.0,2.0,88,0.00,,,0.01,Wunderground v.1.15,2013-11-18 20:35:00,
2013-11-18 14:41:00,77.0,73.2,29.83,ENE,76,1.0,3.0,88,0.00,,,0.01,Wunderground v.1.15,2013-11-18 20:41:00,
2013-11-18 14:47:00,76.9,72.7,29.84,ESE,102,2.0,2.0,87,0.00,,,0.01,Wunderground v.1.15,2013-11-18 20:47:00,
2013-11-18 14:52:00,76.7,72.9,29.83,ENE,74,2.0,3.0,88,0.00,,,0.01,Wunderground v.1.15,2013-11-18 20:52:00,
2013-11-18 14:58:00,76.8,73.0,29.83,NE,44,1.0,1.0,88,0.00,,,0.01,Wunderground v.1.15,2013-11-18 20:58:00,
2013-11-18 15:04:00,77.2,73.4,29.83,East,98,1.0,4.0,88,0.00,,,0.01,Wunderground v.1.15,2013-11-18 21:04:00,
2013-11-18 15:10:00,77.5,73.3,29.83,East,79,1.0,2.0,87,0.00,,,0.01,Wunderground v.1.15,2013-11-18 21:10:00,
2013-11-18 15:15:00,77.7,73.5,29.83,ENE,65,1.0,4.0,87,0.00,,,0.01,Wunderground v.1.15,2013-11-18 21:15:00,
2013-11-18 15:20:00,77.7,73.5,29.84,NE,35,1.0,3.0,87,0.00,,,0.01,Wunderground v.1.15,2013-11-18 21:20:00,
2013-11-18 15:26:00,77.3,73.1,29.83,NE,56,1.0,2.0,87,0.00,,,0.01,Wunderground v.1.15,2013-11-18 21:26:00,
2013-11-18 15:32:00,76.6,72.4,29.84,East,99,1.0,4.0,87,0.00,,,0.01,Wunderground v.1.15,2013-11-18 21:32:00,
2013-11-18 15:38:00,76.4,72.9,29.84,East,91,1.0,2.0,89,0.00,,,0.01,Wunderground v.1.15,2013-11-18 21:38:00,
2013-11-18 15:43:00,76.5,73.0,29.84,ENE,67,1.0,2.0,89,0.00,,,0.01,Wunderground v.1.15,2013-11-18 21:43:00,
2013-11-18 15:49:00,76.8,73.3,29.84,ENE,70,1.0,1.0,89,0.00,,,0.01,Wunderground v.1.15,2013-11-18 21:49:00,
2013-11-18 15:54:00,76.9,73.1,29.84,NE,56,0.0,1.0,88,0.00,,,0.01,Wunderground v.1.15,2013-11-18 21:54:00,
2013-11-18 16:00:00,76.5,72.7,29.84,NE,53,0.0,1.0,88,0.00,,,0.01,Wunderground v.1.15,2013-11-18 22:00:00,
2013-11-18 16:06:00,76.1,72.3,29.84,NE,46,1.0,1.0,88,0.00,,,0.01,Wunderground v.1.15,2013-11-18 22:06:00,
2013-11-18 16:11:00,75.5,72.0,29.84,East,87,1.0,2.0,89,0.00,,,0.01,Wunderground v.1.15,2013-11-18 22:11:00,
2013-11-18 16:17:00,75.0,71.9,29.84,East,92,2.0,6.0,90,0.00,,,0.01,Wunderground v.1.15,2013-11-18 22:17:00,
2013-11-18 16:23:00,74.6,71.5,29.84,East,99,2.0,6.0,90,0.00,,,0.01,Wunderground v.1.15,2013-11-18 22:23:00,
2013-11-18 16:29:00,74.4,71.6,29.84,East,99,1.0,2.0,91,0.00,,,0.01,Wunderground v.1.15,2013-11-18 22:29:00,
2013-11-18 16:34:00,74.3,71.5,29.85,ENE,67,1.0,2.0,91,0.00,,,0.01,Wunderground v.1.15,2013-11-18 22:34:00,
2013-11-18 16:40:00,74.2,71.4,29.84,East,95,1.0,3.0,91,0.00,,,0.01,Wunderground v.1.15,2013-11-18 22:40:00,
2013-11-18 16:46:00,74.0,71.2,29.84,NNE,33,1.0,1.0,91,0.00,,,0.01,Wunderground v.1.15,2013-11-18 22:46:00,
2013-11-18 16:52:00,73.9,71.1,29.84,ENE,68,1.0,1.0,91,0.00,,,0.01,Wunderground v.1.15,2013-11-18 22:52:00,
2013-11-18 16:57:00,73.9,71.4,29.85,ENE,67,1.0,2.0,92,0.00,,,0.01,Wunderground v.1.15,2013-11-18 22:57:00,
2013-11-18 17:03:00,73.7,71.2,29.85,NNE,25,1.0,2.0,92,0.00,,,0.01,Wunderground v.1.15,2013-11-18 23:03:00,
2013-11-18 17:09:00,73.6,71.1,29.85,NE,49,1.0,4.0,92,0.00,,,0.01,Wunderground v.1.15,2013-11-18 23:09:00,
2013-11-18 17:14:00,73.5,71.0,29.85,NE,41,1.0,4.0,92,0.00,,,0.01,Wunderground v.1.15,2013-11-18 23:14:00,
2013-11-18 17:20:00,73.3,70.8,29.85,ENE,58,1.0,3.0,92,0.00,,,0.01,Wunderground v.1.15,2013-11-18 23:20:00,
2013-11-18 17:25:00,73.1,71.0,29.85,East,97,1.0,5.0,93,0.00,,,0.01,Wunderground v.1.15,2013-11-18 23:25:00,
2013-11-18 17:31:00,72.8,70.7,29.85,NNE,27,1.0,1.0,93,0.00,,,0.01,Wunderground v.1.15,2013-11-18 23:31:00,
2013-11-18 17:37:00,72.6,70.5,29.85,NE,40,1.0,4.0,93,0.00,,,0.01,Wunderground v.1.15,2013-11-18 23:37:00,
2013-11-18 17:43:00,72.4,70.3,29.85,ENE,58,2.0,4.0,93,0.00,,,0.01,Wunderground v.1.15,2013-11-18 23:43:00,
2013-11-18 17:48:00,72.0,69.9,29.85,North,4,2.0,2.0,93,0.00,,,0.01,Wunderground v.1.15,2013-11-18 23:48:00,
2013-11-18 17:54:00,71.7,69.9,29.86,ESE,113,2.0,5.0,94,0.00,,,0.01,Wunderground v.1.15,2013-11-18 23:54:00,
2013-11-18 18:00:00,71.5,69.7,29.86,NE,39,2.0,3.0,94,0.00,,,0.01,Wunderground v.1.15,2013-11-19 00:00:00,
2013-11-18 18:06:00,71.3,69.8,29.86,NE,55,2.0,4.0,95,0.00,,,0.01,Wunderground v.1.15,2013-11-19 00:06:00,
2013-11-18 18:11:00,71.1,69.6,29.86,ENE,72,1.0,2.0,95,0.00,,,0.01,Wunderground v.1.15,2013-11-19 00:11:00,
2013-11-18 18:17:00,71.0,69.5,29.86,NE,48,1.0,2.0,95,0.00,,,0.01,Wunderground v.1.15,2013-11-19 00:17:00,
2013-11-18 18:23:00,70.9,69.4,29.87,NE,41,1.0,3.0,95,0.00,,,0.01,Wunderground v.1.15,2013-11-19 00:23:00,
2013-11-18 18:28:00,70.8,69.6,29.86,ESE,105,1.0,2.0,96,0.00,,,0.01,Wunderground v.1.15,2013-11-19 00:28:00,
2013-11-18 18:34:00,70.6,69.4,29.87,ENE,59,1.0,2.0,96,0.00,,,0.01,Wunderground v.1.15,2013-11-19 00:34:00,
2013-11-18 18:40:00,70.4,69.2,29.87,NE,37,1.0,1.0,96,0.00,,,0.01,Wunderground v.1.15,2013-11-19 00:40:00,
2013-11-18 18:45:00,70.1,68.9,29.87,NNE,30,2.0,3.0,96,0.00,,,0.01,Wunderground v.1.15,2013-11-19 00:45:00,
2013-11-18 18:51:00,70.0,68.8,29.87,NNE,29,2.0,5.0,96,0.00,,,0.01,Wunderground v.1.15,2013-11-19 00:51:00,
2013-11-18 18:56:00,69.8,68.6,29.88,NNE,30,1.0,1.0,96,0.00,,,0.01,Wunderground v.1.15,2013-11-19 00:56:00,
2013-11-18 19:02:00,69.3,67.8,29.88,NNE,33,1.0,3.0,95,0.00,,,0.01,Wunderground v.1.15,2013-11-19 01:02:00,
2013-11-18 19:07:00,68.8,67.3,29.88,NNE,30,1.0,1.0,95,0.00,,,0.01,Wunderground v.1.15,2013-11-19 01:07:00,
2013-11-18 19:13:00,68.5,67.0,29.88,NE,55,1.0,4.0,95,0.00,,,0.01,Wunderground v.1.15,2013-11-19 01:13:00,
2013-11-18 19:19:00,68.2,66.7,29.89,NE,42,1.0,2.0,95,0.00,,,0.01,Wunderground v.1.15,2013-11-19 01:19:00,
2013-11-18 19:25:00,68.2,66.7,29.89,North,9,1.0,2.0,95,0.00,,,0.01,Wunderground v.1.15,2013-11-19 01:25:00,
2013-11-18 19:31:00,68.0,66.2,29.89,East,91,1.0,4.0,94,0.00,,,0.01,Wunderground v.1.15,2013-11-19 01:31:00,
2013-11-18 19:36:00,68.0,66.2,29.89,NNE,19,1.0,2.0,94,0.00,,,0.01,Wunderground v.1.15,2013-11-19 01:36:00,
2013-11-18 19:42:00,68.2,66.1,29.89,WNW,292,1.0,2.0,93,0.00,,,0.01,Wunderground v.1.15,2013-11-19 01:42:00,
2013-11-18 19:48:00,68.4,66.0,29.89,NE,36,1.0,1.0,92,0.00,,,0.01,Wunderground v.1.15,2013-11-19 01:48:00,
2013-11-18 19:53:00,68.4,66.0,29.89,ENE,58,1.0,3.0,92,0.00,,,0.01,Wunderground v.1.15,2013-11-19 01:53:00,
2013-11-18 19:59:00,68.4,66.0,29.89,NNE,33,1.0,1.0,92,0.00,,,0.01,Wunderground v.1.15,2013-11-19 01:59:00,
2013-11-18 20:04:00,68.4,66.0,29.89,ENE,59,1.0,1.0,92,0.00,,,0.01,Wunderground v.1.15,2013-11-19 02:04:00,
2013-11-18 20:05:00,68.4,66.0,29.89,NE,37,1.0,1.0,92,0.00,,,0.01,Wunderground v.1.15,2013-11-19 02:05:00,
2013-11-18 20:11:00,68.4,66.0,29.90,NNE,27,1.0,1.0,92,0.00,,,0.01,Wunderground v.1.15,2013-11-19 02:11:00,
2013-11-18 20:17:00,68.4,66.0,29.90,NNE,31,0.0,0.0,92,0.00,,,0.01,Wunderground v.1.15,2013-11-19 02:17:00,
2013-11-18 20:23:00,68.4,66.0,29.90,NE,37,0.0,1.0,92,0.00,,,0.01,Wunderground v.1.15,2013-11-19 02:23:00,
2013-11-18 20:28:00,68.4,65.7,29.91,North,353,0.0,0.0,91,0.00,,,0.01,Wunderground v.1.15,2013-11-19 02:28:00,
2013-11-18 20:34:00,68.4,65.7,29.91,NE,34,0.0,1.0,91,0.00,,,0.01,Wunderground v.1.15,2013-11-19 02:34:00,
2013-11-18 20:40:00,68.3,65.6,29.91,NNE,23,0.0,1.0,91,0.00,,,0.01,Wunderground v.1.15,2013-11-19 02:40:00,
2013-11-18 20:46:00,68.2,65.5,29.91,NNE,22,0.0,0.0,91,0.00,,,0.01,Wunderground v.1.15,2013-11-19 02:46:00,
2013-11-18 20:52:00,68.1,65.1,29.91,NNE,29,0.0,1.0,90,0.00,,,0.01,Wunderground v.1.15,2013-11-19 02:52:00,
2013-11-18 20:57:00,68.2,65.2,29.91,NE,34,0.0,0.0,90,0.00,,,0.01,Wunderground v.1.15,2013-11-19 02:57:00,
2013-11-18 21:03:00,68.3,64.9,29.91,NNE,22,0.0,1.0,89,0.00,,,0.01,Wunderground v.1.15,2013-11-19 03:03:00,
2013-11-18 21:09:00,68.4,65.0,29.91,NE,34,0.0,1.0,89,0.00,,,0.01,Wunderground v.1.15,2013-11-19 03:09:00,
2013-11-18 21:14:00,68.5,65.1,29.91,NNE,33,0.0,2.0,89,0.00,,,0.01,Wunderground v.1.15,2013-11-19 03:14:00,
2013-11-18 21:20:00,68.5,64.8,29.91,NE,39,0.0,1.0,88,0.00,,,0.01,Wunderground v.1.15,2013-11-19 03:20:00,
2013-11-18 21:25:00,68.5,64.8,29.91,NNE,27,0.0,0.0,88,0.00,,,0.01,Wunderground v.1.15,2013-11-19 03:25:00,
2013-11-18 21:31:00,68.4,64.7,29.91,NNE,27,0.0,2.0,88,0.00,,,0.01,Wunderground v.1.15,2013-11-19 03:31:00,
2013-11-18 21:37:00,68.5,64.8,29.91,NNE,25,0.0,0.0,88,0.00,,,0.01,Wunderground v.1.15,2013-11-19 03:37:00,
2013-11-18 21:42:00,68.5,64.8,29.91,NNE,22,0.0,1.0,88,0.00,,,0.01,Wunderground v.1.15,2013-11-19 03:42:00,
2013-11-18 21:47:00,68.5,65.1,29.91,NNE,13,0.0,2.0,89,0.00,,,0.01,Wunderground v.1.15,2013-11-19 03:47:00,
2013-11-18 21:53:00,68.5,65.1,29.92,NNE,19,0.0,2.0,89,0.00,,,0.01,Wunderground v.1.15,2013-11-19 03:53:00,
2013-11-18 21:59:00,68.5,65.4,29.91,NNE,27,1.0,1.0,90,0.00,,,0.01,Wunderground v.1.15,2013-11-19 03:59:00,
2013-11-18 22:05:00,68.5,65.4,29.91,NNE,25,1.0,1.0,90,0.00,,,0.01,Wunderground v.1.15,2013-11-19 04:05:00,
2013-11-18 22:11:00,68.6,65.5,29.91,ENE,63,1.0,1.0,90,0.00,,,0.01,Wunderground v.1.15,2013-11-19 04:11:00,
2013-11-18 22:16:00,68.7,66.0,29.91,NNE,23,1.0,1.0,91,0.00,,,0.01,Wunderground v.1.15,2013-11-19 04:16:00,
2013-11-18 22:22:00,68.8,66.1,29.91,NNE,33,1.0,1.0,91,0.00,,,0.01,Wunderground v.1.15,2013-11-19 04:22:00,
2013-11-18 22:28:00,68.8,66.1,29.91,NE,36,1.0,1.0,91,0.00,,,0.01,Wunderground v.1.15,2013-11-19 04:28:00,
2013-11-18 22:33:00,68.9,66.2,29.91,NE,34,1.0,2.0,91,0.00,,,0.01,Wunderground v.1.15,2013-11-19 04:33:00,
2013-11-18 22:39:00,68.9,65.8,29.91,NNE,12,1.0,1.0,90,0.00,,,0.01,Wunderground v.1.15,2013-11-19 04:39:00,
2013-11-18 22:44:00,69.0,65.6,29.91,NE,46,1.0,3.0,89,0.00,,,0.01,Wunderground v.1.15,2013-11-19 04:44:00,
2013-11-18 22:50:00,69.0,65.6,29.91,NE,36,2.0,2.0,89,0.00,,,0.01,Wunderground v.1.15,2013-11-19 04:50:00,
2013-11-18 22:57:00,69.0,65.3,29.91,NE,36,1.0,1.0,88,0.00,,,0.01,Wunderground v.1.15,2013-11-19 04:57:00,
2013-11-18 23:01:00,68.9,64.5,29.91,NNE,32,1.0,3.0,86,0.00,,,0.01,Wunderground v.1.15,2013-11-19 05:01:00,
2013-11-18 23:02:00,68.9,64.5,29.91,NNW,348,1.0,3.0,86,0.00,,,0.01,Wunderground v.1.15,2013-11-19 05:02:00,
2013-11-18 23:05:00,69.0,64.3,29.91,ENE,67,1.0,3.0,85,0.00,,,0.01,Wunderground v.1.15,2013-11-19 05:05:00,
2013-11-18 23:06:00,69.0,64.3,29.91,NNE,32,1.0,1.0,85,0.00,,,0.01,Wunderground v.1.15,2013-11-19 05:06:00,
2013-11-18 23:09:00,69.0,64.0,29.91,East,79,1.0,4.0,84,0.00,,,0.01,Wunderground v.1.15,2013-11-19 05:09:00,
2013-11-18 23:14:00,69.0,63.3,29.91,NNE,23,1.0,4.0,82,0.00,,,0.01,Wunderground v.1.15,2013-11-19 05:14:00,
2013-11-18 23:19:00,69.0,62.6,29.91,NNE,19,1.0,2.0,80,0.00,,,0.01,Wunderground v.1.15,2013-11-19 05:19:00,
2013-11-18 23:24:00,69.0,62.2,29.91,NNE,23,0.0,2.0,79,0.00,,,0.01,Wunderground v.1.15,2013-11-19 05:24:00,
2013-11-18 23:30:00,68.9,61.4,29.91,NNE,33,0.0,2.0,77,0.00,,,0.01,Wunderground v.1.15,2013-11-19 05:30:00,
2013-11-18 23:36:00,68.8,60.9,29.90,NE,34,0.0,0.0,76,0.00,,,0.01,Wunderground v.1.15,2013-11-19 05:36:00,
2013-11-18 23:41:00,68.7,60.5,29.90,NNE,27,0.0,1.0,75,0.00,,,0.01,Wunderground v.1.15,2013-11-19 05:41:00,
2013-11-18 23:47:00,68.7,60.1,29.90,NNE,29,0.0,3.0,74,0.00,,,0.01,Wunderground v.1.15,2013-11-19 05:47:00,
2013-11-18 23:53:00,68.6,60.0,29.90,NNE,23,0.0,3.0,74,0.00,,,0.01,Wunderground v.1.15,2013-11-19 05:53:00,
2013-11-18 23:59:00,68.5,59.5,29.89,NE,51,0.0,0.0,73,0.00,,,0.01,Wunderground v.1.15,2013-11-19 05:59:00,